GFSSE_500_spd_099.txt.gz
Wind_Speed
20 17 13 14 15 18 19 19 20 20 22 22 22 21 19 17 19 21 22 23 25 24 23 23 23 21 20 20 18 15 15 15 14 13 13 12 16 17 16 15 13 11 10
20 17 14 15 17 19 19 19 18 19 22 23 22 21 19 16 15 17 20 22 22 23 23 23 23 22 21 19 18 16 16 17 16 16 15 15 16 17 16 13 12 10 8
21 19 18 18 19 19 20 20 20 21 22 21 20 20 19 17 16 13 14 17 20 20 20 22 22 22 22 21 18 16 17 17 17 15 16 17 16 17 13 12 8 8 9
25 20 20 20 20 21 21 21 21 23 24 22 19 18 19 20 20 19 17 16 17 19 19 20 22 23 23 22 19 19 17 17 17 16 16 16 15 14 12 10 10 10 9
26 22 21 21 22 21 24 25 25 27 25 21 18 20 21 23 25 24 23 20 19 20 20 20 22 23 24 24 22 21 20 19 18 17 17 15 13 12 12 10 11 11 6
26 25 21 21 22 22 22 25 27 28 25 20 18 20 25 24 25 27 28 24 22 24 24 23 22 22 25 26 24 22 22 20 19 19 18 17 15 16 15 12 10 9 10
27 24 23 22 21 23 25 24 27 27 24 19 18 20 22 22 25 31 33 21 19 23 25 25 25 24 26 29 27 24 23 25 18 18 18 18 19 19 17 16 12 9 8
27 25 23 21 21 23 23 25 25 24 23 17 17 19 21 22 22 24 24 23 29 17 25 30 30 29 30 31 28 26 22 21 19 19 20 19 20 19 19 20 12 11 10
29 28 24 20 21 22 23 25 24 23 21 17 18 18 21 20 19 21 25 29 28 24 23 28 37 26 34 33 30 29 23 23 21 20 21 21 22 23 24 15 13 12 14
30 31 26 22 20 22 21 24 23 22 20 18 20 18 20 22 20 21 22 25 24 23 26 22 29 22 29 34 35 28 24 24 22 22 23 23 25 24 30 15 14 13 13
28 33 31 24 21 20 20 21 20 19 20 19 19 20 19 20 21 21 21 25 25 22 19 20 20 25 27 32 35 26 34 24 21 22 21 26 28 28 25 18 16 18 15
27 32 32 28 23 22 21 19 21 19 20 20 20 22 21 21 22 22 22 23 23 20 19 23 17 27 25 27 28 31 30 23 24 21 26 30 28 30 20 21 18 12 11
27 31 33 32 26 25 22 20 21 21 19 20 20 23 22 22 23 24 23 20 22 24 21 20 24 26 26 27 30 27 20 20 23 24 28 30 34 32 28 18 12 12 14
27 32 33 34 29 25 24 20 21 20 17 17 19 21 23 23 23 25 25 25 24 24 29 26 27 30 29 27 31 26 24 25 26 27 31 32 32 30 19 16 16 16 17
28 32 34 35 30 24 25 23 20 20 17 17 19 22 22 22 23 24 26 31 27 27 33 30 29 31 28 27 26 27 26 25 26 30 32 33 23 20 17 19 19 19 19
28 33 33 34 30 26 26 25 20 18 17 17 20 23 22 23 23 22 27 28 23 35 35 35 34 31 25 28 25 27 28 27 27 29 31 29 28 28 21 21 22 22 20
26 34 32 31 30 26 28 26 20 18 15 17 20 22 23 24 24 22 21 20 24 29 33 44 40 40 29 33 28 28 28 27 28 30 26 23 25 25 25 25 26 24 22
25 33 32 31 29 25 28 26 17 17 16 17 18 22 24 25 25 21 17 19 19 31 37 39 39 36 32 28 29 30 29 29 28 36 27 24 30 25 31 30 29 28 26
26 32 33 30 30 25 28 26 16 15 15 18 20 23 23 22 22 20 16 19 13 30 35 39 46 40 32 28 28 29 33 31 30 32 36 31 29 28 31 35 31 29 30
28 32 33 30 30 25 30 26 16 15 15 17 19 21 20 18 20 18 17 15 7 33 34 37 44 35 31 33 35 31 34 34 32 30 32 29 28 27 30 35 37 35 32
31 31 35 32 31 26 31 26 18 16 17 17 18 19 18 15 19 16 18 15 15 18 37 36 36 33 33 33 36 32 29 30 34 32 30 31 32 31 31 32 35 38 42
35 33 38 34 31 28 30 29 20 16 18 16 17 18 18 16 16 17 17 18 16 14 30 38 38 33 32 32 28 27 28 27 29 31 33 34 35 34 35 30 32 38 34
37 34 34 36 34 29 30 29 21 17 16 15 16 16 15 15 15 15 15 19 21 18 19 19 19 20 20 21 26 30 30 29 33 35 36 37 39 36 32 30 28 32 36
35 36 36 37 35 32 29 27 22 18 15 13 14 15 15 12 11 13 15 19 21 22 23 27 26 30 21 17 27 27 29 28 32 35 40 43 42 37 36 34 35 36 38
38 38 37 39 38 32 30 26 22 19 15 13 13 13 15 12 11 10 11 17 23 30 24 24 28 32 27 26 31 31 27 26 32 36 40 45 37 38 35 38 40 39 40
40 39 38 38 37 31 30 26 21 20 15 13 12 11 13 11 12 12 14 16 19 21 23 28 32 34 30 29 28 31 28 25 25 28 32 31 31 31 36 37 39 41 46

GFSSE_500_spd_102.txt.gz
Wind_Speed
19 18 17 14 14 15 15 16 18 17 16 17 19 17 16 17 19 21 22 25 25 25 24 24 22 19 19 20 20 20 18 19 18 16 14 13 12 14 15 14 14 13 10
18 16 15 15 16 17 16 16 18 20 21 21 21 20 16 15 17 18 19 22 25 26 25 24 22 21 20 21 21 20 19 18 17 15 13 14 13 13 15 14 14 11 9
20 20 17 16 18 20 18 18 20 21 23 23 24 19 17 15 16 16 17 19 21 22 21 22 22 21 20 21 22 22 20 19 18 17 17 16 16 15 16 15 12 10 10
20 22 22 21 20 20 19 18 20 21 21 23 22 19 18 17 15 18 18 18 18 18 18 18 19 21 22 23 24 24 21 20 18 18 19 18 18 16 17 15 12 11 11
21 22 22 23 23 22 20 20 21 21 20 20 19 18 18 19 20 18 21 19 20 20 18 17 17 19 21 24 25 24 23 22 20 19 18 16 15 15 15 16 15 11 11
22 23 23 23 23 23 23 22 22 21 22 19 18 18 18 20 20 19 18 16 20 22 23 20 18 18 21 24 27 27 25 24 21 20 19 17 14 17 18 18 14 11 11
21 21 22 22 23 25 24 24 23 23 21 19 17 19 18 19 16 15 10 18 23 33 28 21 22 23 23 26 30 28 28 26 23 20 18 18 21 21 19 19 16 12 13
24 20 20 22 23 25 26 23 22 21 22 19 16 17 18 21 20 15 19 21 22 22 22 20 27 26 28 30 32 31 29 27 23 23 22 21 21 21 21 21 19 17 14
26 21 19 21 23 25 26 24 22 21 21 19 17 16 19 21 21 17 18 21 19 23 29 21 23 23 30 35 35 34 31 28 25 25 23 23 23 22 23 24 21 19 15
26 25 21 19 23 24 24 23 22 23 22 19 17 17 20 20 19 17 19 20 20 23 24 20 22 27 27 40 36 35 31 26 25 28 23 23 24 23 24 24 26 29 17
26 26 26 22 22 23 24 21 22 23 23 22 18 17 19 21 21 18 18 20 20 21 21 18 19 16 21 36 35 36 30 29 28 26 26 24 24 24 24 25 24 22 19
26 25 27 26 23 23 24 22 24 23 23 23 19 17 19 22 21 21 21 22 20 19 20 17 21 23 25 30 27 36 32 31 29 20 24 23 25 25 24 26 26 24 22
28 25 28 28 25 26 24 24 24 25 22 22 19 16 18 22 22 23 23 22 22 20 20 20 19 23 29 28 26 35 34 31 32 27 24 26 26 24 25 24 28 26 19
27 27 28 30 28 27 26 27 24 26 24 20 18 17 17 19 21 24 25 23 23 23 23 25 19 19 27 26 27 32 36 31 32 31 26 26 25 26 25 31 30 22 17
25 29 29 31 29 27 27 27 26 26 25 21 18 17 20 20 21 22 23 24 23 21 26 28 25 26 30 28 27 32 33 28 31 30 26 26 26 27 28 29 24 21 19
29 30 30 32 29 26 26 27 26 28 24 22 19 17 19 22 23 22 24 25 27 26 32 33 33 23 33 31 31 34 34 30 28 26 28 27 27 30 25 20 23 23 23
31 33 32 34 31 27 26 27 26 28 23 20 19 17 18 22 24 24 23 24 23 29 30 34 31 29 36 34 33 32 34 32 30 29 28 28 30 31 23 25 26 28 26
33 36 36 36 34 27 25 28 27 26 24 19 19 17 18 23 24 23 23 23 21 22 26 39 29 40 33 36 36 30 31 32 33 31 29 28 28 25 25 26 31 30 29
34 38 37 37 36 27 25 27 27 26 24 19 19 20 19 24 23 20 20 20 18 22 29 38 43 40 39 43 33 36 33 33 34 32 29 31 28 25 28 28 29 33 32
38 40 40 38 36 29 27 27 27 26 24 21 20 21 21 23 21 20 19 18 17 19 29 36 33 46 41 50 37 37 38 34 33 30 30 30 29 33 31 32 31 34 35
43 40 40 39 39 34 28 28 27 26 24 21 21 23 22 22 21 18 18 16 17 18 22 33 39 31 39 42 40 33 33 30 32 34 32 31 29 31 28 30 32 34 37
46 43 42 42 41 37 30 29 28 27 25 21 22 22 22 19 19 15 15 16 15 16 7 36 36 35 43 40 37 34 33 31 29 32 34 32 31 29 33 34 34 34 34
47 45 41 43 42 39 33 30 29 27 26 21 22 20 21 18 17 15 13 14 14 13 13 19 31 38 46 40 35 34 35 33 32 31 31 32 33 34 34 36 36 39 40
43 45 44 43 46 42 34 31 30 28 25 23 22 17 19 17 16 14 12 12 15 16 17 14 21 32 42 41 37 30 29 28 30 27 28 31 33 36 38 40 41 40 36
46 44 45 44 47 42 35 33 30 29 27 24 22 17 17 15 16 15 13 11 12 15 19 21 17 19 22 24 20 23 22 21 24 26 27 28 34 36 40 42 45 43 43
46 42 45 43 45 40 36 33 30 29 28 25 21 18 14 15 15 16 16 14 15 16 19 21 20 18 23 29 26 26 26 28 25 25 26 26 26 30 35 38 35 32 37

GFSSE_500_spd_105.txt.gz
Wind_Speed
13 14 14 14 15 17 18 18 18 18 17 17 19 19 20 21 21 22 22 23 25 26 25 26 26 24 22 21 21 21 22 21 20 18 17 16 15 13 13 12 11 12 12
12 13 14 14 15 16 18 19 19 20 20 20 21 22 21 21 20 21 22 22 23 25 25 23 25 26 24 21 21 22 22 22 21 19 18 17 15 12 12 12 12 12 11
13 13 15 15 16 16 17 19 21 22 22 22 22 20 21 19 18 20 20 18 18 20 24 24 22 24 23 23 23 23 23 23 22 20 19 17 16 15 13 15 15 13 12
15 14 15 17 17 17 18 20 20 20 21 22 22 21 19 19 18 18 17 19 18 18 18 20 20 21 23 24 25 25 25 25 23 21 21 19 17 17 16 16 15 14 12
15 16 14 16 17 19 20 20 20 21 21 21 21 21 18 19 17 15 16 19 20 20 20 18 18 20 22 24 25 26 26 26 25 24 21 18 18 18 17 16 17 16 13
18 17 16 17 17 18 20 21 22 23 23 21 20 20 20 18 15 16 14 20 18 23 20 21 21 17 18 23 26 27 28 28 27 25 21 18 17 16 16 17 18 17 15
20 18 17 19 18 18 20 21 24 23 23 21 20 21 19 14 16 15 16 6 16 21 21 26 27 20 19 23 28 30 31 30 29 26 24 17 17 16 16 20 20 19 16
21 20 17 19 19 20 20 21 23 24 23 21 20 19 17 19 19 19 12 19 19 20 25 29 28 20 27 25 27 32 32 32 32 28 22 21 19 19 22 21 21 19 18
24 24 19 20 19 20 21 21 22 24 23 22 22 20 19 19 20 21 16 17 20 21 21 14 20 26 24 28 28 33 32 32 33 31 24 25 23 24 24 23 22 22 19
24 26 24 21 20 19 21 21 21 23 24 23 24 22 21 20 20 19 15 17 21 22 21 24 22 18 16 24 27 36 35 36 33 35 25 27 24 25 23 22 23 22 24
25 27 27 25 22 19 20 21 21 22 23 25 25 23 23 21 21 20 19 19 21 23 20 22 22 17 17 22 25 31 39 38 34 32 28 30 26 24 24 23 22 25 26
26 27 28 29 25 21 19 21 22 22 23 26 26 24 23 23 23 23 22 21 21 22 21 20 20 22 19 22 24 35 40 36 38 30 28 33 26 25 24 24 24 24 20
26 28 31 31 29 23 18 21 22 22 23 26 26 25 22 22 23 24 25 24 24 22 22 21 22 24 23 24 21 30 35 37 35 31 28 27 28 25 24 23 22 23 25
28 30 34 33 31 26 21 22 23 23 23 26 27 25 23 23 23 21 23 25 24 24 23 23 25 26 25 26 25 28 26 36 32 33 31 28 30 26 25 24 23 25 24
28 32 36 35 33 29 26 21 23 23 23 27 27 25 24 23 22 21 21 22 23 24 25 25 26 28 25 27 31 25 25 31 33 33 32 29 29 28 26 24 24 25 27
30 35 36 36 36 33 30 23 24 23 23 26 26 25 24 23 22 19 23 24 25 24 26 28 25 31 22 26 31 26 27 30 32 33 31 33 28 25 24 24 24 25 24
33 36 36 37 37 37 34 26 25 23 23 27 26 26 23 22 20 19 23 26 28 27 27 28 29 30 23 30 30 30 30 28 30 31 32 32 31 24 23 25 25 23 22
35 38 39 39 39 40 37 31 27 25 24 26 26 25 23 22 21 21 23 25 27 26 28 26 31 31 30 33 33 34 31 31 31 31 31 30 28 24 24 26 25 22 26
40 40 41 40 39 41 40 35 29 27 26 26 25 25 23 24 22 22 23 23 24 26 27 27 31 36 34 33 36 38 33 31 32 35 31 30 29 27 26 24 25 27 27
43 41 40 42 42 42 43 39 33 30 27 26 25 25 24 25 24 24 23 23 22 25 24 30 31 39 39 38 44 39 35 31 34 32 31 31 29 26 27 25 24 26 29
46 43 40 42 41 44 45 43 37 32 28 27 25 26 26 26 26 25 23 22 21 23 24 27 34 42 37 33 45 35 40 38 34 30 31 30 29 28 28 28 31 30 33
47 45 42 40 41 44 46 46 42 36 28 28 26 26 27 26 27 22 22 20 19 21 22 23 28 43 37 47 36 36 42 31 35 33 33 34 33 31 30 29 29 29 32
47 48 46 43 40 42 43 47 47 40 30 27 26 25 27 26 26 21 21 19 19 18 20 21 24 36 39 42 38 41 44 42 34 32 33 32 35 34 33 30 30 31 33
49 48 46 47 41 42 41 45 47 42 33 28 26 26 28 27 26 21 20 18 18 16 17 16 8 34 31 33 37 39 36 34 31 34 34 37 33 34 31 31 32 34 35
45 45 43 45 43 43 40 44 47 40 35 28 26 26 27 26 26 20 20 18 17 16 16 18 13 9 23 32 33 32 36 39 38 38 37 31 27 27 28 31 32 34 36
43 43 42 42 42 42 40 44 46 38 38 28 27 25 26 26 25 21 19 18 19 17 16 16 15 15 11 10 20 25 24 30 31 32 25 21 22 25 29 30 31 33 36

GFSSE_500_spd_108.txt.gz
Wind_Speed
8 9 10 10 11 11 13 17 18 19 20 19 18 19 20 21 23 21 21 21 21 21 23 25 26 25 25 25 25 25 24 24 22 21 19 18 17 17 16 14 12 8 9
10 10 10 10 11 10 12 14 16 17 18 19 20 21 21 22 21 22 21 21 20 20 20 22 24 26 26 26 26 25 25 24 24 23 21 19 19 17 14 14 11 11 10
10 9 10 10 12 13 13 14 15 16 17 19 20 22 21 21 21 20 19 19 19 18 17 20 21 24 25 26 26 25 24 24 24 24 22 22 20 19 15 14 14 13 11
12 9 11 12 12 13 15 17 16 16 18 19 21 21 22 21 20 17 17 16 18 19 19 18 18 20 23 25 26 27 26 25 26 25 25 23 19 17 16 14 15 14 14
15 11 12 15 15 14 16 17 17 16 18 19 21 22 21 21 18 16 18 19 21 20 21 19 18 15 18 24 27 27 27 27 26 27 25 19 17 19 18 16 15 15 14
18 15 13 17 16 16 16 17 18 18 20 21 21 21 20 19 17 17 17 18 16 23 20 17 18 19 22 21 25 27 28 27 27 26 24 19 19 19 19 17 16 17 16
20 17 14 18 18 16 17 17 17 18 20 21 20 19 18 17 17 18 18 17 19 13 17 18 17 21 24 19 22 26 28 28 29 27 28 23 18 18 18 17 17 18 17
22 18 15 19 19 18 17 17 17 18 19 21 20 17 17 17 19 21 20 18 18 20 20 18 21 26 29 24 23 25 28 31 30 29 29 27 22 19 19 17 18 17 18
23 20 18 18 19 18 18 19 17 18 18 20 20 19 19 18 18 21 22 20 19 20 22 21 20 17 15 26 26 25 27 30 29 31 40 29 23 22 20 20 19 20 19
23 23 20 19 20 19 19 20 17 18 18 20 20 21 20 20 18 20 22 21 22 21 23 21 19 17 21 20 22 27 26 29 30 32 28 21 21 24 24 22 22 21 20
24 25 23 21 22 22 20 21 18 18 19 20 21 22 22 21 20 19 21 22 23 25 23 20 19 19 24 22 15 27 28 33 31 33 33 29 28 26 26 24 24 22 21
26 27 25 24 25 25 23 22 22 18 18 20 21 23 22 23 22 20 21 23 24 26 25 22 19 21 24 24 22 24 27 33 34 32 33 35 30 28 27 24 23 22 20
27 28 27 27 28 28 27 24 23 21 19 20 21 23 23 24 24 22 22 22 23 25 25 22 21 24 25 24 26 24 27 32 35 36 34 35 32 30 28 26 24 22 20
29 28 29 30 31 31 31 26 24 23 21 20 21 23 24 24 25 23 22 23 21 23 24 23 24 25 24 26 26 25 22 29 32 36 33 33 30 29 32 27 24 21 20
32 29 28 33 34 33 33 27 28 25 24 21 21 23 24 25 24 24 22 22 21 20 21 24 24 26 25 28 30 27 24 26 28 33 34 32 28 26 29 25 25 21 21
38 32 29 34 36 35 34 29 29 26 25 25 23 23 24 26 27 23 22 22 21 22 23 25 26 25 26 27 32 30 28 24 23 31 33 31 29 25 28 28 25 22 20
39 38 35 31 38 35 37 33 33 28 27 27 25 23 24 25 27 25 22 21 23 23 25 27 27 28 27 31 29 31 31 29 22 26 32 28 28 25 29 27 26 23 21
40 39 41 32 35 37 40 39 36 32 27 30 28 26 24 25 25 26 24 24 26 24 25 27 30 30 28 25 26 31 34 32 23 26 27 33 30 30 30 26 25 21 22
43 40 41 37 30 40 42 41 41 35 31 31 31 29 26 24 26 27 24 25 26 24 24 27 29 31 29 23 23 36 31 32 25 25 26 28 27 27 31 28 24 20 20
42 40 41 40 29 36 40 42 42 39 36 32 32 32 29 26 26 28 26 26 27 25 26 27 27 28 32 26 29 33 36 35 31 26 29 29 27 29 31 28 24 22 20
42 42 46 41 33 33 38 41 42 41 39 35 34 34 32 28 26 28 27 27 25 25 26 27 26 30 35 34 37 31 41 40 31 28 30 30 29 30 27 27 24 23 24
44 46 47 40 36 32 37 41 44 44 40 39 33 36 34 31 27 27 26 27 24 24 25 26 25 31 28 35 43 45 44 40 30 30 29 27 26 28 27 29 26 25 25
48 48 47 45 38 35 36 41 45 45 40 41 34 33 35 33 27 27 25 27 25 23 23 25 22 26 26 38 40 43 44 41 33 32 34 31 29 30 30 33 31 29 27
48 47 47 46 46 39 38 39 43 41 41 42 38 29 33 32 27 27 25 27 24 23 22 20 21 24 21 41 37 41 37 40 29 35 36 34 36 34 29 31 35 34 31
49 49 48 49 44 42 35 36 40 41 42 42 40 29 34 29 27 26 27 25 23 22 19 21 22 24 15 34 42 37 36 35 32 33 35 35 34 32 36 37 35 33 32
46 47 47 48 48 41 38 35 37 39 41 41 39 29 33 30 25 25 27 26 23 22 20 19 19 18 12 10 25 30 32 40 39 34 36 36 35 37 39 32 30 29 28

GFSSE_500_spd_111.txt.gz
Wind_Speed
9 8 7 6 8 10 11 12 12 13 15 17 18 19 20 21 21 20 19 19 19 19 21 21 21 22 23 24 25 25 25 24 24 23 22 21 18 17 16 14 14 11 10
13 11 9 7 8 10 12 13 13 13 14 16 17 19 20 20 19 20 20 17 17 17 18 18 19 20 23 25 25 26 26 27 26 26 25 23 21 20 18 16 16 12 12
15 13 10 7 8 8 9 10 13 14 13 15 16 17 19 20 19 18 17 16 16 16 15 15 19 20 20 23 26 26 27 27 27 27 28 27 24 21 19 15 16 15 14
17 16 11 8 9 9 10 11 11 13 15 15 16 18 18 18 19 17 17 17 17 18 17 17 18 17 18 20 23 26 28 29 28 27 27 26 22 21 19 18 16 16 14
19 18 14 10 10 11 11 13 12 13 14 16 17 18 17 17 19 17 17 18 17 17 17 17 17 18 20 16 18 25 28 28 28 28 27 25 19 21 19 19 16 15 14
22 21 17 14 11 12 12 13 12 13 14 15 16 17 17 17 18 17 16 16 18 16 17 17 16 19 18 19 19 24 27 28 29 28 26 24 21 20 20 19 16 16 17
22 24 19 16 14 13 13 13 12 13 14 15 16 17 17 16 16 17 17 18 18 19 15 15 18 19 21 21 21 23 24 29 27 26 27 23 22 21 20 20 20 19 17
23 26 21 17 16 15 14 14 14 13 14 14 16 17 17 16 16 18 17 17 18 19 18 18 19 19 23 25 24 23 23 27 28 25 26 23 14 21 20 20 19 19 19
25 26 24 19 17 17 17 15 16 14 14 14 15 19 18 16 16 17 19 17 18 19 19 20 20 19 17 17 19 23 25 26 29 27 26 25 30 24 20 19 20 18 18
26 27 27 22 19 19 18 17 18 18 16 15 15 17 19 17 17 18 18 19 18 19 20 18 19 17 18 17 14 23 26 28 27 28 27 26 30 23 24 22 20 19 18
29 27 28 26 23 21 19 19 19 20 18 20 17 17 19 19 18 18 20 18 19 20 22 20 17 18 20 20 21 21 23 26 25 27 32 33 25 25 24 24 23 20 19
32 29 30 29 27 25 23 20 20 21 20 20 20 19 19 19 19 21 21 20 19 20 21 21 20 21 21 20 21 22 20 23 24 25 29 28 30 25 27 26 24 20 21
32 33 31 31 30 28 28 23 21 21 21 21 22 21 20 21 20 21 23 22 20 21 22 21 22 23 22 21 20 26 22 21 28 31 30 31 31 28 27 27 24 24 22
31 34 34 32 30 30 31 27 24 23 22 22 23 24 21 21 21 21 23 23 21 22 21 17 19 22 23 22 23 24 26 27 24 30 33 34 34 28 29 25 25 25 22
36 33 33 34 32 31 33 29 27 25 25 23 23 25 24 21 21 22 21 22 23 22 22 19 20 23 23 23 24 24 28 32 27 30 32 34 37 32 29 27 27 29 22
40 36 32 33 33 32 33 32 29 27 28 25 24 27 26 24 23 23 22 20 22 23 23 21 22 25 25 25 25 25 24 30 25 29 30 35 35 27 27 27 25 24 23
43 38 34 33 30 33 33 33 32 30 29 28 25 28 29 26 26 24 24 22 22 22 24 24 24 26 27 26 27 26 29 26 27 27 24 32 29 29 28 27 26 24 23
42 39 34 37 34 31 34 34 33 32 31 32 27 29 31 30 28 28 25 24 24 24 24 25 25 27 27 28 28 25 24 27 30 24 21 27 29 29 28 27 25 25 24
42 42 39 40 38 34 30 38 35 34 31 33 32 29 30 32 30 29 28 27 25 26 27 26 27 27 27 28 29 23 21 31 34 30 26 26 31 30 30 28 27 25 24
43 43 43 42 37 38 30 34 37 35 32 32 36 32 31 32 31 30 30 27 26 28 28 26 28 27 27 26 29 24 26 36 33 33 27 23 27 32 30 30 28 27 24
41 42 42 41 37 37 29 31 40 37 35 33 36 33 32 32 31 30 30 27 27 27 27 26 29 28 28 27 28 30 32 35 38 38 28 22 25 27 26 25 26 28 26
39 37 41 39 39 38 32 32 42 40 39 36 36 35 32 33 30 30 28 28 27 26 28 28 29 29 29 29 27 38 30 40 45 37 30 26 25 29 26 26 28 29 26
40 38 40 40 37 39 38 31 37 40 40 38 35 39 37 33 28 28 27 28 27 26 28 27 29 27 26 27 24 26 36 40 46 36 30 26 26 25 27 27 27 28 26
47 45 41 41 44 44 41 33 37 41 39 37 37 41 39 33 28 25 26 27 27 26 27 27 28 24 21 23 26 27 38 35 45 39 34 32 30 29 28 28 29 30 31
45 44 44 42 42 42 40 38 37 41 39 38 37 40 39 35 27 24 26 28 27 26 27 26 27 24 22 23 22 30 35 41 42 40 40 33 32 36 36 33 34 31 29
43 43 44 44 45 44 43 40 35 38 41 38 37 37 36 34 26 24 26 28 26 26 27 27 25 25 21 21 16 29 38 39 37 41 39 31 28 29 36 38 35 34 35

GFSSE_500_spd_114.txt.gz
Wind_Speed
11 11 10 8 7 5 5 7 8 9 12 13 14 17 18 19 18 19 17 16 17 15 15 16 14 16 19 22 23 24 25 24 24 24 24 21 21 21 17 16 17 17 15
14 13 13 11 8 6 6 6 8 9 11 13 15 16 18 19 19 18 16 15 14 15 15 14 15 14 16 19 23 25 25 26 25 25 24 24 23 21 19 18 17 16 15
17 17 15 13 11 10 10 8 9 9 11 13 14 16 17 18 19 19 17 16 15 16 15 14 14 17 18 19 21 23 25 26 28 29 29 28 27 24 21 20 18 17 15
18 20 18 15 13 11 12 10 10 10 10 12 13 14 17 17 18 17 17 16 15 16 15 12 15 16 18 20 20 21 23 28 29 30 30 28 27 26 23 21 19 16 17
22 21 21 18 16 13 12 10 11 9 11 11 12 14 16 16 17 17 15 14 13 14 15 16 15 15 17 21 21 20 23 26 29 30 30 30 22 22 21 20 20 17 18
25 22 23 21 19 16 14 12 11 9 11 12 12 14 16 16 15 16 14 16 16 15 14 17 16 14 16 20 21 21 21 24 26 29 28 26 22 23 21 21 19 17 17
27 26 25 24 22 20 15 14 13 11 12 12 12 13 15 16 15 16 16 17 17 15 15 15 16 14 16 20 21 24 23 21 23 26 26 26 21 23 22 21 20 19 20
27 27 27 26 23 22 18 16 16 14 15 14 13 13 14 16 16 16 16 18 18 16 16 15 17 18 18 21 23 24 25 24 23 25 23 23 22 23 24 21 19 19 19
27 26 26 28 26 24 21 18 17 17 17 16 15 15 15 16 17 17 17 17 19 17 17 16 17 19 20 22 22 15 16 22 21 23 23 24 27 23 24 22 20 19 20
26 28 26 28 29 26 23 21 18 17 19 18 17 16 16 16 17 18 18 18 19 18 19 17 18 18 20 19 19 18 16 20 21 24 24 24 26 27 27 17 17 19 20
25 29 30 26 28 28 25 23 21 19 19 20 18 17 17 18 18 18 18 18 18 18 19 19 18 19 20 20 20 21 19 20 22 25 26 27 25 26 26 28 21 20 20
28 31 32 26 27 29 29 27 23 22 20 21 20 19 18 20 20 20 19 19 19 18 19 20 19 20 22 21 21 21 20 20 23 20 25 27 29 30 22 24 24 24 21
33 33 31 30 28 28 32 30 27 25 22 22 22 20 19 21 20 20 20 20 19 19 20 20 20 21 22 21 22 22 21 19 18 22 22 24 26 29 27 24 25 25 23
34 33 33 31 29 28 32 32 31 28 25 23 22 22 21 21 20 20 21 20 20 18 19 20 20 22 22 20 22 22 21 21 24 19 24 27 29 29 27 29 26 26 25
34 31 34 34 31 29 29 32 33 30 27 25 23 23 22 21 22 22 23 21 20 20 20 20 20 23 23 24 21 23 23 23 24 28 27 25 32 32 32 31 23 25 24
36 34 36 32 33 32 28 31 32 31 29 26 26 24 23 24 25 23 24 23 21 21 19 19 20 23 25 25 27 26 25 24 22 25 30 28 33 33 34 30 26 25 26
37 40 38 37 34 34 30 29 32 31 31 28 27 25 25 25 27 26 24 24 24 23 19 20 23 25 26 28 30 28 27 24 24 31 27 27 34 34 32 27 30 27 26
43 41 41 39 38 33 30 30 30 32 33 30 28 27 27 25 26 27 26 23 24 24 23 21 24 26 26 28 28 28 27 26 27 29 26 32 32 33 34 26 25 26 26
42 42 42 41 39 35 33 29 32 33 35 32 30 30 29 27 27 27 27 25 25 25 26 24 24 26 25 28 29 28 27 24 27 28 28 30 28 27 30 27 28 27 26
38 41 44 41 39 36 37 31 30 35 36 33 31 32 32 28 28 28 28 27 25 25 26 26 25 24 26 28 28 27 24 25 27 28 30 26 25 27 29 27 28 28 27
39 40 44 42 39 39 37 33 29 29 37 36 32 32 35 30 29 29 30 29 26 25 27 27 27 24 27 27 29 28 28 27 24 30 34 31 31 27 29 30 30 29 31
42 42 45 44 42 38 37 35 34 29 34 34 34 34 37 32 33 31 30 29 27 26 27 28 27 26 27 27 29 29 29 31 27 34 36 35 29 26 27 31 33 31 31
43 43 42 40 39 37 36 37 34 34 33 35 32 31 36 36 38 33 30 29 27 26 27 28 27 26 27 27 29 27 26 28 32 36 44 38 34 25 28 28 28 27 26
46 40 41 41 40 38 36 36 33 32 32 37 36 32 37 39 40 34 29 29 27 27 26 28 27 26 27 26 26 25 29 29 31 40 48 44 40 30 27 29 32 31 29
43 38 38 38 38 39 39 41 37 33 35 36 36 35 37 39 39 35 31 29 28 26 26 28 27 25 27 26 26 27 24 24 24 40 48 44 38 30 28 29 33 33 32
41 38 37 38 39 40 41 40 37 34 32 36 39 39 38 38 40 37 32 30 28 27 26 28 27 25 28 27 28 25 21 24 25 36 44 45 38 35 33 35 35 36 34

GFSSE_500_spd_117.txt.gz
Wind_Speed
16 13 13 13 11 10 8 7 7 8 9 10 12 14 15 16 17 16 17 17 15 16 17 16 15 14 15 16 19 21 23 23 23 23 23 22 21 20 20 19 19 18 16
20 20 16 14 14 13 11 11 10 9 9 10 12 13 16 17 17 16 17 17 15 15 14 15 14 15 15 16 18 20 22 24 25 25 24 25 22 19 19 18 15 15 15
21 22 25 18 15 15 14 13 13 11 9 11 12 13 14 17 18 16 17 16 15 14 14 14 13 13 16 18 18 18 20 22 25 26 25 25 24 22 21 20 18 17 16
24 23 26 23 18 18 16 15 15 12 10 11 11 12 14 17 17 17 15 14 14 14 13 13 13 14 14 16 17 17 19 20 23 26 27 28 26 26 25 23 20 19 17
25 24 27 24 22 20 19 18 16 14 12 11 10 12 13 15 18 17 16 13 13 13 16 14 14 14 13 15 16 17 18 20 22 24 29 30 27 23 23 23 22 20 17
28 25 29 26 24 22 21 20 17 15 14 13 13 12 12 14 16 18 17 15 15 16 16 14 14 13 14 14 15 16 17 18 20 23 28 30 29 24 23 20 21 19 17
30 27 29 28 28 24 23 21 20 17 15 15 16 14 13 14 16 17 17 16 16 17 16 14 13 14 16 17 17 17 19 22 22 23 24 23 24 21 24 23 20 19 18
26 26 28 29 29 28 25 23 22 19 18 18 18 17 15 16 18 17 16 16 16 17 16 15 16 16 18 19 19 20 20 22 24 23 22 21 21 21 29 22 20 19 20
26 25 27 30 30 30 27 25 24 21 20 19 18 19 18 18 18 19 18 16 16 17 18 17 18 18 19 21 18 19 16 17 16 19 25 18 22 19 26 23 19 17 15
30 27 26 30 30 30 29 27 26 24 20 20 19 19 18 19 19 19 18 16 16 17 18 19 19 19 19 21 18 18 17 17 15 17 15 20 22 22 23 20 18 16 17
33 30 28 30 29 30 29 27 27 26 23 21 21 18 19 19 19 19 17 16 16 17 19 21 22 22 21 20 19 19 18 17 16 18 19 20 26 24 24 19 19 17 17
36 35 33 30 30 28 28 29 28 28 26 23 21 20 19 19 20 19 16 15 15 17 18 20 22 23 24 21 19 19 19 16 18 18 22 22 26 27 22 17 18 24 20
45 37 34 31 32 28 27 28 28 29 28 26 23 22 20 20 20 21 17 16 16 17 18 20 21 23 23 22 19 17 21 19 17 18 18 20 23 24 28 25 19 24 22
41 42 37 33 32 29 28 28 27 27 29 29 25 23 20 20 20 21 20 18 16 17 18 19 21 22 22 20 21 18 21 21 19 18 20 21 22 23 26 26 25 24 23
39 33 33 35 34 32 32 29 26 27 29 30 26 25 21 20 20 21 21 20 18 17 18 19 20 22 22 22 22 22 22 24 21 22 20 21 21 27 24 28 25 26 25
39 34 31 35 35 34 32 29 27 28 29 30 28 26 23 21 20 21 22 22 20 18 17 19 20 20 22 24 25 26 25 26 25 23 19 22 25 27 29 32 31 30 32
43 35 33 35 34 34 34 33 29 29 31 29 30 28 26 24 22 21 22 23 21 20 18 18 22 22 24 24 26 26 24 26 25 27 26 27 28 27 31 36 38 29 27
47 38 31 35 35 35 34 34 34 32 31 30 30 31 27 27 25 23 22 23 24 22 21 19 21 24 25 25 28 27 24 24 24 29 28 28 30 25 35 37 28 27 28
47 41 37 37 38 38 36 35 35 35 33 33 31 30 28 30 29 25 23 24 26 25 22 20 21 24 26 27 28 27 26 25 26 27 29 27 26 25 32 36 29 31 33
47 43 41 41 41 40 39 37 35 32 34 36 34 30 30 30 32 27 25 26 26 27 26 22 21 25 26 28 28 28 26 25 24 27 30 31 29 29 33 31 30 30 27
51 46 42 42 41 39 38 37 36 33 34 38 37 34 30 31 32 29 27 28 29 28 28 24 23 25 26 29 30 28 27 26 28 28 26 26 27 34 32 29 30 30 30
55 49 44 43 42 35 33 33 36 35 35 38 38 36 27 32 33 32 29 30 30 30 31 27 24 25 26 29 31 28 27 27 26 26 25 26 34 32 28 28 30 31 30
56 48 44 43 41 34 32 34 34 35 38 36 32 35 33 33 36 34 34 33 30 31 32 29 27 26 27 28 30 28 26 25 28 25 22 26 35 36 38 31 33 35 31
51 48 44 45 41 36 35 35 33 35 38 36 35 35 36 31 37 38 35 32 31 32 32 32 29 28 28 28 30 29 27 26 26 29 33 32 37 38 34 30 33 35 34
49 46 43 41 41 38 37 37 37 36 37 39 39 39 35 37 38 41 36 33 33 32 32 32 31 29 29 28 30 29 28 27 26 30 34 34 41 39 38 33 29 32 34
52 50 45 41 43 44 41 40 36 38 38 40 39 44 36 38 42 43 41 37 36 34 34 33 32 30 29 29 30 29 28 29 25 27 25 24 41 44 41 38 30 31 35

GFSSE_500_spd_120.txt.gz
Wind_Speed
9 12 18 17 16 15 12 10 10 10 10 10 9 9 9 11 14 15 15 14 15 15 15 14 13 13 12 13 14 15 17 18 19 19 20 19 20 20 19 20 17 15 17
12 13 16 20 17 16 15 14 13 12 12 10 9 9 9 11 13 14 16 16 14 14 13 12 12 12 11 11 13 15 17 19 20 20 21 20 22 21 18 18 16 15 14
17 17 16 18 20 19 18 15 15 13 13 13 10 7 8 10 13 15 17 16 14 13 13 12 12 12 12 13 11 12 14 16 19 21 23 24 23 20 20 19 17 16 16
23 20 18 19 22 21 21 19 17 15 13 14 11 9 9 10 12 15 16 17 15 13 13 12 12 11 13 14 13 12 12 14 17 21 22 23 22 23 25 24 21 18 16
28 25 21 21 22 22 23 22 20 18 15 14 13 12 12 11 13 13 16 17 16 13 13 14 14 15 14 13 13 12 12 13 15 19 23 23 25 25 24 24 24 21 18
33 29 26 22 23 25 26 25 23 21 19 15 14 14 14 13 14 15 16 17 16 15 14 15 14 14 13 13 14 15 15 15 16 18 18 22 26 24 24 26 23 20 18
37 33 29 26 24 25 26 25 24 23 21 19 17 16 16 16 15 17 18 18 18 16 13 14 14 14 15 15 14 15 16 17 19 20 21 21 24 21 25 28 24 19 18
41 40 32 27 25 26 25 25 25 24 23 21 19 17 17 18 17 16 18 19 18 16 15 14 15 15 16 17 17 16 17 19 18 16 16 22 23 18 24 24 24 21 19
43 35 29 26 27 26 25 26 26 24 24 23 21 18 17 18 18 16 18 18 18 16 16 15 16 16 16 18 18 17 16 15 17 17 14 15 22 19 31 29 23 21 18
44 34 30 30 29 26 26 26 25 25 23 25 23 20 18 18 18 17 17 17 17 17 17 16 16 17 17 18 17 16 18 17 17 17 16 13 12 14 16 19 16 21 18
43 37 29 30 31 31 27 26 26 24 23 23 24 23 20 19 17 17 16 17 16 16 17 17 16 17 18 17 17 16 17 19 15 15 14 15 14 17 23 24 14 15 17
40 42 32 32 34 32 30 29 27 25 24 24 24 23 22 20 18 18 17 16 16 15 16 18 17 18 18 16 15 15 17 17 17 16 16 14 19 21 23 21 10 20 21
48 45 43 39 37 32 33 30 29 28 25 24 25 23 22 22 19 19 18 16 17 16 16 17 17 17 18 17 15 15 16 16 18 16 17 17 17 18 21 22 19 10 14
51 48 40 41 38 30 32 30 30 29 28 25 25 24 23 22 20 19 18 16 16 16 16 16 17 18 18 18 16 17 16 18 19 17 17 20 19 15 17 19 17 20 17
56 52 43 36 35 34 36 32 29 28 30 29 25 25 23 22 21 20 19 17 17 17 17 17 17 18 18 19 19 18 20 20 20 21 19 20 21 17 17 23 20 22 23
60 58 47 39 35 34 33 34 30 32 30 29 27 27 25 24 21 21 21 20 17 18 18 18 18 19 18 19 20 20 21 22 22 22 21 20 21 22 21 21 21 25 25
60 61 57 41 36 37 34 31 32 29 31 29 28 28 26 26 23 22 22 22 19 18 19 20 19 19 20 19 22 22 23 23 22 21 22 21 24 24 24 25 25 27 29
62 65 62 45 36 37 35 32 34 33 34 32 30 30 29 28 27 23 23 23 22 20 20 22 21 20 21 21 22 24 23 24 22 23 24 22 27 27 25 26 26 27 34
64 64 63 50 40 37 35 34 33 36 33 33 32 31 33 32 28 26 26 24 23 23 22 23 23 22 22 23 23 24 24 25 23 24 25 26 26 28 30 30 31 31 36
68 67 67 52 46 41 43 40 38 35 33 33 34 34 35 34 31 29 29 25 24 25 25 25 24 25 25 25 25 25 26 26 24 25 26 24 26 30 31 31 33 32 37
74 72 71 55 48 46 47 46 42 35 34 36 34 36 35 34 35 33 31 26 26 28 27 27 25 26 26 27 26 26 27 27 25 26 29 28 28 27 33 34 35 35 36
74 75 72 58 52 49 47 45 42 39 37 37 37 38 37 36 37 34 33 29 29 30 30 28 27 28 27 28 27 28 27 26 25 26 28 28 29 27 28 31 33 36 27
73 72 69 59 55 52 48 44 41 42 38 39 38 38 36 37 39 40 37 34 32 33 33 32 28 29 28 29 29 29 30 27 26 27 26 26 25 24 32 31 34 30 29
76 68 63 62 51 50 47 39 37 40 41 39 40 41 39 41 42 45 42 33 27 32 34 35 31 29 30 30 30 30 31 30 28 26 27 27 27 29 30 36 34 33 30
72 66 67 62 48 46 44 39 37 41 43 40 36 33 40 41 41 44 42 37 37 36 37 36 34 31 30 31 31 31 31 31 30 27 26 27 32 32 32 35 37 39 37
67 72 61 58 54 49 46 42 41 42 43 40 37 34 36 39 43 47 47 44 40 37 38 38 39 35 32 33 32 32 31 32 31 29 29 26 29 30 28 40 39 37 32

GFSSE_500_spd_123.txt.gz
Wind_Speed
15 17 15 12 11 10 11 11 11 11 9 7 8 8 6 8 11 11 13 14 15 14 13 12 10 8 7 8 8 9 12 14 15 16 17 18 18 18 19 17 16 17 19
19 19 18 16 15 14 12 12 13 15 14 10 9 9 6 9 10 11 13 14 15 14 13 12 11 10 9 9 10 9 10 11 14 16 17 18 17 16 17 16 16 17 17
24 24 21 17 16 16 12 13 14 16 17 14 11 10 8 7 9 11 13 15 15 13 12 12 11 11 10 10 11 10 10 9 12 16 19 22 22 20 19 20 15 15 15
29 27 26 21 18 19 15 14 16 17 18 18 14 11 10 8 9 11 12 15 16 14 13 12 12 12 13 14 12 11 11 11 12 16 18 20 22 20 20 19 19 18 16
29 27 25 25 21 20 19 18 17 18 18 20 17 14 12 11 10 10 12 14 16 17 14 12 12 12 13 14 13 13 12 13 13 16 17 19 21 22 21 24 23 24 20
30 28 26 25 28 22 21 21 19 17 18 20 20 18 15 13 12 11 12 13 15 16 16 13 12 11 13 12 13 13 13 13 14 14 16 19 20 22 26 26 25 22 18
34 32 29 30 30 28 25 23 19 18 18 18 20 20 19 15 14 13 12 13 14 15 16 15 12 12 12 13 14 14 14 15 16 16 15 17 22 25 27 27 26 20 17
35 34 34 34 34 29 25 26 21 19 19 19 19 21 20 17 15 14 13 14 14 14 14 15 13 12 12 13 14 14 14 15 15 14 14 14 16 23 27 29 26 21 18
38 38 38 36 35 29 26 28 22 21 20 20 19 20 20 18 16 15 14 14 15 14 14 14 14 13 13 13 13 12 13 15 17 17 15 14 15 20 18 26 21 20 19
41 40 42 36 31 31 29 28 25 23 21 20 19 19 19 19 17 16 16 15 15 15 15 14 14 15 15 14 12 11 14 15 16 16 15 15 14 14 12 11 13 18 24
41 39 38 37 33 28 30 28 26 23 22 21 20 20 19 19 19 17 17 17 17 15 15 14 15 15 16 15 13 12 13 14 14 15 14 15 15 15 16 14 14 13 19
40 40 40 37 31 28 30 31 30 28 24 22 21 21 20 19 18 18 19 19 19 17 15 14 14 14 15 16 15 14 13 13 13 14 14 15 15 16 18 14 12 13 12
43 42 42 43 40 37 35 33 31 31 25 24 22 21 21 20 18 18 19 20 20 19 17 15 14 14 14 15 17 17 14 14 14 13 13 16 15 18 18 14 16 17 11
44 47 46 40 41 38 34 30 32 31 28 26 23 22 22 21 18 18 19 20 21 20 18 16 15 14 15 14 16 17 17 15 14 15 15 15 19 17 17 13 16 11 16
45 47 49 46 41 40 34 29 31 34 33 29 26 25 25 23 19 19 19 20 21 22 20 20 16 15 15 15 15 16 18 17 17 17 18 18 19 19 19 17 13 18 16
48 49 50 52 48 38 35 32 33 33 34 33 29 28 27 25 23 22 21 21 21 22 22 21 17 17 16 16 16 17 18 18 18 18 19 18 20 23 20 21 19 13 16
52 55 53 54 51 45 38 34 35 33 34 33 31 28 26 26 26 24 24 24 22 22 22 21 19 17 18 18 17 17 18 20 20 20 18 18 19 22 26 24 25 21 19
57 58 58 56 57 49 42 34 37 38 36 33 30 29 28 27 26 27 27 26 25 22 22 22 21 19 18 19 19 19 18 20 21 21 20 21 20 23 26 29 30 27 25
61 61 62 60 59 54 44 37 37 38 40 36 31 31 29 29 28 28 29 30 29 25 23 23 23 21 20 20 20 21 20 21 22 22 23 24 22 21 28 31 30 30 30
66 65 65 63 62 59 47 44 43 40 38 37 33 32 33 32 31 31 30 32 32 29 26 25 24 23 22 22 21 22 21 23 23 23 26 27 26 24 24 28 30 34 31
70 70 69 66 65 63 58 49 47 38 38 39 37 38 38 33 33 35 33 33 34 33 30 27 26 26 24 25 23 23 23 24 24 25 27 28 28 28 27 30 34 37 32
75 73 74 70 70 65 63 54 51 45 44 44 43 43 39 35 35 38 36 36 36 35 31 31 30 29 26 27 26 25 23 24 27 27 27 29 30 28 28 30 33 32 36
76 76 76 74 72 68 62 56 54 47 47 46 41 40 41 39 38 40 41 38 37 36 34 36 33 31 28 29 29 28 26 25 28 28 29 30 30 29 27 28 24 27 41
75 76 77 77 75 72 67 63 58 53 50 44 41 44 47 46 42 40 42 44 42 36 38 40 35 33 32 31 31 30 29 28 28 27 28 32 31 31 28 29 28 27 32
75 74 77 76 73 69 67 67 64 58 56 47 42 47 49 49 44 40 44 44 46 46 42 38 38 35 34 33 34 32 31 29 30 29 27 30 35 33 30 31 33 29 35
72 72 71 67 67 65 62 67 68 63 55 47 44 44 44 46 43 44 45 45 48 51 46 40 41 37 34 36 36 34 34 32 31 31 31 28 32 33 32 31 29 28 30

GFSSE_500_spd_126.txt.gz
Wind_Speed
16 16 18 19 18 14 13 12 11 11 11 9 10 9 7 7 9 9 10 11 12 12 11 9 8 9 9 8 8 8 9 9 12 14 15 16 20 19 16 11 13 17 17
18 18 19 23 25 21 16 14 14 13 12 11 10 11 9 8 9 9 11 12 13 12 12 11 10 9 9 9 10 10 12 10 10 12 14 16 21 11 13 13 15 16 19
20 20 19 21 24 21 19 16 16 15 14 13 12 11 10 10 9 9 10 12 13 14 13 12 11 10 10 9 10 11 11 12 12 12 14 17 20 23 21 19 18 19 18
22 19 18 18 17 18 18 20 17 17 15 15 13 13 11 11 11 9 9 10 13 13 14 13 12 11 11 11 12 10 10 11 11 13 16 16 19 21 23 22 22 23 19
22 21 21 17 16 13 16 21 21 18 16 16 15 14 14 13 13 11 9 9 11 12 12 13 11 11 11 12 12 10 10 11 13 14 15 18 20 21 24 25 27 17 18
26 27 25 23 19 19 17 19 23 22 19 17 16 16 16 15 15 15 12 10 10 12 11 12 11 10 11 12 13 12 12 12 13 14 16 18 20 25 25 26 29 26 17
29 30 28 25 22 22 23 23 22 22 20 19 16 16 16 16 16 17 15 12 10 11 13 12 11 10 11 12 13 13 13 13 13 15 15 17 19 25 26 25 30 26 23
31 31 31 29 26 27 28 27 22 21 20 20 17 16 16 15 16 16 16 14 12 11 11 12 12 11 11 12 13 13 15 13 13 14 16 16 19 20 21 29 30 23 18
31 32 33 31 29 31 32 28 24 21 20 20 18 16 16 15 15 15 16 15 15 12 11 12 11 12 11 12 13 13 14 14 13 14 15 15 17 18 18 9 21 22 18
32 34 35 34 34 32 28 27 28 24 20 20 18 17 16 16 15 15 15 15 16 15 12 12 12 12 13 13 13 14 14 15 13 14 13 15 13 13 15 14 18 24 18
33 36 37 38 36 33 30 26 25 24 22 21 20 19 18 18 15 15 15 16 16 18 15 13 13 11 12 13 13 15 14 15 15 14 13 15 15 13 13 14 9 13 16
37 38 38 39 38 37 32 25 26 24 23 24 22 20 18 18 17 16 15 16 16 17 19 16 14 12 11 13 12 15 16 16 15 15 14 14 17 13 14 15 12 13 15
39 40 39 40 40 40 37 32 30 31 28 27 26 23 20 18 18 17 17 18 17 17 18 18 16 14 10 12 12 13 15 15 16 16 16 16 18 15 18 15 13 14 13
43 42 41 41 42 42 42 42 33 30 28 28 28 25 24 19 19 18 19 19 19 19 19 19 19 16 13 12 12 13 14 16 16 18 17 18 18 18 18 16 15 12 16
47 47 45 45 43 42 44 42 37 29 30 32 33 29 27 24 22 21 20 21 21 21 20 19 19 18 16 15 14 14 14 15 16 18 18 18 19 18 20 18 22 14 19
52 51 50 48 46 45 43 42 38 35 33 31 34 34 31 27 27 24 23 21 25 23 23 22 19 19 18 16 16 15 16 15 16 17 19 20 20 18 20 22 22 21 17
54 55 53 52 50 47 47 41 37 37 36 35 33 35 33 30 29 25 23 23 27 24 24 25 22 20 19 18 17 16 18 17 18 19 19 19 20 21 20 21 25 23 24
56 57 57 55 52 50 48 47 39 36 40 39 37 34 33 31 30 28 26 26 25 26 26 27 26 23 21 20 18 16 19 18 20 20 20 21 20 22 23 23 24 28 25
60 60 60 59 57 55 53 51 45 39 42 43 40 36 32 32 31 29 28 28 28 26 28 28 28 28 24 22 20 19 20 20 21 21 21 23 23 24 25 25 25 29 31
67 63 62 62 61 60 57 56 54 45 43 45 41 38 38 35 33 29 29 31 32 30 29 30 29 30 27 25 22 22 21 22 22 23 23 23 24 26 26 27 27 26 29
75 71 67 65 63 64 63 59 55 52 44 48 42 42 40 39 35 31 31 34 36 34 33 31 29 31 30 27 25 25 24 24 23 26 25 24 26 27 26 28 31 31 33
80 79 75 71 69 67 66 62 60 57 48 49 48 45 43 43 36 34 37 37 38 38 35 34 30 33 33 31 29 28 26 26 26 27 27 27 27 29 27 27 30 31 33
83 83 81 77 74 71 68 67 65 62 59 52 52 44 40 42 41 39 40 41 41 41 38 37 36 35 35 34 34 31 28 28 29 30 29 28 30 30 29 30 30 29 30
81 77 84 81 77 73 71 70 71 66 57 50 51 46 46 48 48 47 45 44 44 44 44 42 40 40 41 37 36 33 30 29 30 29 31 31 31 32 32 30 30 29 32
67 79 81 84 80 75 74 74 70 68 56 50 51 48 48 48 50 50 48 46 46 46 50 49 46 44 44 40 34 34 32 31 31 31 32 30 33 34 34 32 32 32 33
66 82 86 84 78 75 74 74 77 54 54 53 52 53 53 57 56 54 49 48 48 50 53 53 48 47 46 43 36 37 34 32 31 33 32 34 32 33 34 36 32 33 34

GFSSE_500_spd_129.txt.gz
Wind_Speed
19 16 16 16 18 19 21 19 17 16 15 13 11 9 7 6 6 6 7 8 9 10 10 10 9 9 9 8 8 9 9 11 11 13 15 16 18 18 20 21 17 13 13
22 20 19 19 20 18 18 20 18 19 18 16 14 12 9 8 7 7 7 8 10 11 10 10 10 9 9 8 8 9 11 12 12 13 15 16 17 14 23 15 17 16 18
24 24 22 21 20 18 15 16 18 18 20 19 16 14 12 10 9 8 8 7 10 11 11 11 11 11 10 9 9 11 11 11 12 11 13 14 17 18 21 22 19 21 18
23 25 24 20 17 13 11 13 16 17 18 20 19 16 16 13 12 10 10 9 10 11 12 11 11 10 9 9 9 9 9 10 11 12 13 15 16 20 21 22 22 19 22
27 24 23 20 17 16 13 12 13 17 19 18 18 19 17 16 14 13 12 11 10 12 12 13 11 10 9 10 10 10 10 11 12 14 13 17 16 20 23 25 26 22 28
28 24 25 25 21 20 17 16 15 19 19 19 18 17 19 18 16 15 15 14 12 11 11 12 13 10 9 10 10 11 12 13 13 14 16 16 17 18 23 26 29 28 27
30 28 28 27 22 19 20 18 20 19 19 19 19 18 17 16 17 17 16 16 14 13 11 11 11 12 9 10 10 11 14 15 13 14 14 14 17 19 21 22 22 23 25
32 32 31 27 23 21 22 21 21 18 19 18 18 19 17 15 16 17 16 15 15 13 12 10 10 12 13 10 11 12 13 15 14 14 12 15 18 21 20 21 25 22 30
34 33 32 29 27 25 26 25 24 21 19 19 18 18 17 16 16 16 16 15 14 14 13 12 10 11 12 12 11 12 13 15 15 14 13 13 17 19 16 15 19 12 20
39 36 34 32 30 29 29 28 26 23 22 20 19 18 17 17 17 16 16 15 15 14 14 14 13 10 12 12 12 12 13 14 15 15 14 13 17 17 16 14 14 7 11
41 39 35 34 33 33 33 31 28 24 23 21 20 20 19 18 18 17 16 15 15 15 16 16 14 14 12 11 11 12 13 14 15 15 15 13 16 17 15 13 12 9 12
42 42 40 38 37 37 37 34 31 26 24 24 22 21 21 20 17 18 16 15 16 16 16 17 17 15 15 11 11 11 12 13 16 14 16 15 15 15 16 15 17 12 8
45 44 42 41 40 40 39 36 34 30 27 28 30 27 23 22 20 18 16 16 16 17 17 18 17 17 16 15 13 12 12 12 15 13 17 17 17 16 15 14 15 18 17
49 49 46 44 42 42 42 39 37 34 33 32 33 32 29 25 23 22 19 19 20 18 19 20 18 18 18 17 17 15 14 13 15 14 15 17 18 18 17 18 17 19 13
53 51 50 48 46 44 43 41 40 39 35 34 34 33 32 31 26 24 23 23 22 20 19 21 20 20 18 18 19 19 16 17 16 17 15 17 18 19 20 21 19 15 22
56 56 53 51 49 47 46 44 43 43 36 34 35 33 33 33 30 26 26 25 23 21 20 24 22 21 21 20 19 19 20 19 18 19 17 17 20 19 19 20 21 20 21
56 59 58 57 53 51 49 48 46 46 39 34 36 35 33 32 31 31 29 27 24 23 24 23 25 22 23 22 21 20 20 21 21 21 21 19 18 21 19 21 22 22 19
62 61 62 60 59 55 52 52 52 49 44 38 38 38 36 34 32 31 33 31 29 25 25 25 25 26 23 24 23 22 21 22 23 23 23 24 20 21 21 22 24 24 23
65 66 61 62 61 59 57 55 54 54 47 43 40 41 39 35 34 32 32 34 33 30 27 27 26 27 27 27 25 24 24 24 25 25 25 25 26 24 22 24 23 25 24
70 71 72 65 62 62 60 57 57 56 55 46 43 43 41 38 37 36 33 35 39 34 31 29 30 29 29 29 29 26 25 26 26 27 27 27 26 27 25 22 23 24 26
74 75 74 72 66 64 62 62 61 60 57 51 44 44 43 41 40 38 38 37 39 37 34 34 34 31 30 32 31 31 28 28 27 27 27 28 28 28 27 27 24 26 28
82 79 78 79 75 71 65 64 62 61 57 56 50 46 47 47 45 41 39 36 39 40 39 37 37 35 35 33 35 35 32 29 29 28 28 28 29 30 30 28 28 29 30
94 85 84 83 83 78 71 67 66 65 63 61 57 52 49 50 46 43 38 40 40 44 42 40 40 40 38 36 37 39 37 33 33 31 30 28 28 30 31 30 29 30 32
82 89 93 90 86 86 80 73 70 67 65 60 60 57 51 51 46 44 40 45 47 47 47 45 44 45 43 40 39 39 41 38 37 35 30 31 29 30 32 32 31 31 32
49 63 76 89 89 88 83 78 70 71 65 67 65 67 59 54 49 46 45 48 50 49 48 51 47 47 49 47 40 41 39 40 40 36 35 32 28 31 32 33 33 33 33
44 46 53 73 83 88 86 80 75 70 68 69 69 72 63 53 51 48 48 48 48 50 47 50 51 50 48 51 47 44 41 39 41 38 36 35 34 32 31 33 33 34 36